Simultaneous Nadir Overpasses (SNOs) Predictions

Prediction of SNOs between AQUA and METOP-C Satellite Orbit:

Table of predicted SNOs for the next 14.0 days since TLE Epoch: 10/17/2023
Index Date (AQUA) Time (AQUA) Lat,Lon (AQUA) SZA (AQUA ) Date (METOP-C) Time (METOP-C) Lat,Lon (METOP-C) SZA (METOP-C ) Distance(km) Time Diff (sec)
1 10/17/2023 19:53:45 74.77,-121.79 84.06 10/17/2023 19:52:38 74.75,-121.83 84.05 1.96 67
2 10/17/2023 20:43:09 -74.83, 45.70 95.87 10/17/2023 20:43:19 -74.82, 45.69 95.88 1.31 10
3 10/17/2023 21:32:41 75.19,-147.60 84.51 10/17/2023 21:33:50 75.21,-145.85 84.54 49.86 69
4 10/20/2023 12:56:03 -74.75, 162.71 94.98 10/20/2023 12:55:00 -74.78, 162.67 94.95 3.49 63
5 10/20/2023 13:45:29 74.81, -29.80 85.10 10/20/2023 13:45:38 74.83, -29.86 85.12 2.74 9
6 10/20/2023 14:35:03 -75.37, 136.34 94.33 10/20/2023 14:36:09 -75.38, 139.07 94.31 76.60 66
7 10/23/2023 05:58:22 74.78, 87.10 86.01 10/23/2023 05:57:19 74.77, 87.07 86.01 1.07 63
8 10/23/2023 06:47:46 -74.84,-105.40 93.92 10/23/2023 06:48:00 -74.85,-105.38 93.90 2.10 14
9 10/23/2023 07:37:22 75.40, 60.71 86.67 10/23/2023 07:38:28 75.37, 63.47 86.65 77.49 66
10 10/25/2023 23:00:36 -74.79, 11.54 93.04 10/25/2023 22:59:40 -74.79, 11.53 93.04 0.41 56
11 10/25/2023 23:50:02 74.86, 179.01 87.05 10/25/2023 23:50:17 74.87, 179.10 87.07 3.14 15
12 10/28/2023 16:02:51 74.81, -64.03 87.91 10/28/2023 16:01:58 74.79, -64.04 87.89 2.18 53
13 10/28/2023 16:52:15 -74.86, 103.49 92.04 10/28/2023 16:52:39 -74.88, 103.54 92.01 2.80 24



Historial Predications of SNOs between AQUA and METOP-C
